Change the Weather History Date:

Wednesday, November 9, 2011

  Actual Average Record
Temperature  
Mean Temperature 51 °F -  
Max Temperature 60 °F 55 °F 72 °F (1975)
Min Temperature 42 °F 36 °F 21 °F (1967)
Degree Days  
Heating Degree Days 14    
Growing Degree Days 1 (Base 50)    
Moisture  
Dew Point 50 °F    
Average Humidity 97    
Maximum Humidity 100    
Minimum Humidity 80    
Precipitation  
Precipitation 0.00 in - - ()
Sea Level Pressure  
Sea Level Pressure 30.18 in    
Wind  
Wind Speed 2 mph (SSE)    
Max Wind Speed 8 mph    
Max Gust Speed -    
Visibility 4 miles    
Events Fog    
Averages and records for this station are not official NWS values.
T = Trace of Precipitation, MM = Missing Value Source: NWS Daily Summary

Daily Weather History Graph

Daily Weather History Graph

Search for Another Location

Airport or City:

Trip Planner

Search our weather history database for the weather conditions in past years. The results will help you decide how hot, cold, wet, or windy it might be!

Date:

Astronomy

Nov. 09, 2011 Rise Set
Actual Time 6:28 AM EST 4:34 PM EST
Civil Twilight 5:59 AM EST 5:03 PM EST
Nautical Twilight 5:26 AM EST 5:36 PM EST
Astronomical Twilight 4:54 AM EST 6:09 PM EST
Moon 3:44 PM EST (11/9) 5:21 AM EST (11/9)
Length of Visible Light 11h 04m
Length of Day
10h 05m
Waxing Gibbous, 99% of the Moon is Illuminated
Nov 9
Waxing Gibbous
Nov 10
Full
Nov 18
Last Quarter
Nov 25
New
Dec 2
First Quarter

Hourly Weather History & Observations

Time (EST) Temp. Windchill Dew Point Humidity Pressure Visibility Wind Dir Wind Speed Gust Speed Precip Events Conditions
12:56 AM 45.0 °F - 44.1 °F 97% 30.22 in 6.0 mi Calm Calm - N/A   Clear
1:31 AM 44.6 °F - 44.6 °F 100% 30.21 in 1.5 mi Calm Calm - N/A   Clear
1:49 AM 44.6 °F - 44.6 °F 100% 30.21 in 3.0 mi Calm Calm - N/A   Clear
1:56 AM 44.6 °F - 42.8 °F 93% 30.21 in 5.0 mi Calm Calm - N/A   Clear
2:03 AM 44.6 °F - 42.8 °F 93% 30.21 in 1.8 mi Calm Calm - N/A   Clear
2:24 AM 44.6 °F - 44.6 °F 100% 30.22 in 3.0 mi Calm Calm - N/A   Clear
2:33 AM 44.6 °F 43.1 °F 42.8 °F 93% 30.21 in 2.0 mi NNW 3.5 mph - N/A   Clear
2:44 AM 42.8 °F - 42.8 °F 100% 30.21 in 6.0 mi Calm Calm - N/A   Clear
2:56 AM 43.0 °F - 42.1 °F 97% 30.21 in 6.0 mi Calm Calm - N/A   Clear
3:23 AM 42.8 °F 41.1 °F 42.8 °F 100% 30.21 in 1.8 mi NNW 3.5 mph - N/A   Clear
3:35 AM 42.8 °F - 42.8 °F 100% 30.21 in 2.0 mi Calm Calm - N/A   Clear
3:56 AM 44.1 °F - 43.0 °F 96% 30.22 in 6.0 mi Calm Calm - N/A   Clear
4:20 AM 42.8 °F - 42.8 °F 100% 30.21 in 5.0 mi Calm Calm - N/A   Scattered Clouds
4:42 AM 42.8 °F - 42.8 °F 100% 30.21 in 6.0 mi Calm Calm - N/A   Mostly Cloudy
4:56 AM 43.0 °F - 42.1 °F 97% 30.21 in 1.8 mi Calm Calm - N/A   Overcast
5:02 AM 42.8 °F - 42.8 °F 100% 30.20 in 0.2 mi Calm Calm - N/A Fog Fog
5:56 AM 45.0 °F - 45.0 °F 100% 30.20 in 0.2 mi Calm Calm - N/A Fog Fog
6:56 AM 45.0 °F - 45.0 °F 100% 30.21 in 0.2 mi Calm Calm - N/A Fog Fog
7:56 AM 48.0 °F - 48.0 °F 100% 30.23 in 0.2 mi North 3.5 mph - N/A Fog Fog
8:56 AM 50.0 °F - 50.0 °F 100% 30.22 in 0.2 mi Calm Calm - N/A Fog Fog
9:56 AM 53.1 °F - 53.1 °F 100% 30.22 in 0.2 mi SSE 4.6 mph - N/A Fog Fog
10:54 AM 53.6 °F - 53.6 °F 100% 30.21 in 0.5 mi South 4.6 mph - N/A Fog Fog
10:56 AM 54.0 °F - 54.0 °F 100% 30.21 in 0.8 mi South 4.6 mph - N/A   Overcast
11:04 AM 53.6 °F - 53.6 °F 100% 30.20 in 1.0 mi South 4.6 mph - N/A   Overcast
11:22 AM 53.6 °F - 53.6 °F 100% 30.20 in 0.2 mi South 3.5 mph - N/A Fog Fog
11:56 AM 54.0 °F - 54.0 °F 100% 30.19 in 0.2 mi SSW 3.5 mph - N/A Fog Fog
12:19 PM 53.6 °F - 53.6 °F 100% 30.17 in 0.5 mi Calm Calm - N/A Fog Fog
12:32 PM 55.4 °F - 55.4 °F 100% 30.17 in 2.0 mi South 3.5 mph - N/A   Mostly Cloudy
12:39 PM 55.4 °F - 55.4 °F 100% 30.17 in 4.0 mi South 3.5 mph - N/A   Scattered Clouds
12:46 PM 55.4 °F - 55.4 °F 100% 30.17 in 2.5 mi South 3.5 mph - N/A   Scattered Clouds
12:56 PM 55.0 °F - 55.0 °F 100% 30.17 in 1.0 mi South 3.5 mph - N/A   Partly Cloudy
1:06 PM 55.4 °F - 55.4 °F 100% 30.16 in 3.0 mi South 3.5 mph - N/A   Clear
1:56 PM 60.1 °F - 55.0 °F 83% 30.15 in 10.0 mi SSE 6.9 mph - N/A   Clear
2:56 PM 60.1 °F - 54.0 °F 80% 30.14 in 10.0 mi SE 8.1 mph - N/A   Clear
3:56 PM 57.0 °F - 55.0 °F 93% 30.13 in 10.0 mi SE 5.8 mph - N/A   Clear
4:56 PM 55.0 °F - 55.0 °F 100% 30.13 in 6.0 mi SE 6.9 mph - N/A   Mostly Cloudy
5:56 PM 55.9 °F - 55.9 °F 100% 30.13 in 8.0 mi SE 3.5 mph - N/A   Scattered Clouds
6:56 PM 55.9 °F - 55.0 °F 97% 30.12 in 8.0 mi Calm Calm - N/A   Overcast
7:56 PM 55.9 °F - 54.0 °F 93% 30.11 in 9.0 mi ESE 3.5 mph - N/A   Overcast
8:56 PM 57.9 °F - 55.9 °F 93% 30.10 in 10.0 mi SE 5.8 mph - N/A   Overcast
9:56 PM 57.0 °F - 55.9 °F 96% 30.08 in 10.0 mi East 5.8 mph - N/A   Overcast
10:56 PM 57.9 °F - 55.9 °F 93% 30.06 in 10.0 mi East 4.6 mph - N/A   Overcast
11:56 PM 57.9 °F - 57.0 °F 97% 30.04 in 10.0 mi ESE 6.9 mph - N/A   Overcast